Starlink 32585

operational
NORAD ID: 61953 Int'l Des: 2024-209 Owner: SPXS Country: US Constellation: starlink
LEOCIRCULAR

Starlink 32585について

説明を読み込み中...

リアルタイム位置

3D地球を読み込み中...

次回通過

高度履歴

Altitude vs Time

uPlot chart will show altitude changes over time

軌道要素

1 61953U 24209Q 26095.20564181 .00039516 00000-0 13411-2 0 9996
2 61953 53.1601 19.4500 0000946 91.3299 268.7810 15.30155379 78953
Epoch: Apr 5, 2026 • Age: 16 hours

現在のステータス

高度 475.9 km
速度 7.63 km/s
衛星直下点 26.14°N, 21.92°E
打ち上げ日 Nov 14, 2024
運用期間 1.3 years
タイプ internet

技術仕様

分類 Payload
質量 730.00 kg
乾燥質量 700.00 kg
総質量 730.00 kg
長さ 0.30 m
直径 4.10 m
スパン 29.00 m
形状 Box + pan
製造者 SPXS
バスタイプ Starlink V2M
フェーズステータス In Orbit
所有者/国 SPXS/US

大規模コンステレーション

Loading constellations...